{"data":{"norad_id":54775,"epoch":"2026-05-25T03:30:18.584352Z","epoch_age_seconds":65629,"freshness":"FRESH","line1":"1 54775U 22175T   26145.14604843  .00001134  00000+0  89302-4 0  9997","line2":"2 54775  53.2132  60.7305 0001218  90.3742 269.7390 15.08835389191461","mean_motion":15.08835389,"eccentricity":0.0001218,"inclination_deg":53.2132,"raan_deg":60.7305,"arg_perigee_deg":90.3742,"mean_anomaly_deg":269.739,"bstar":8.9302e-5,"rev_number":19146,"period_min":95.437846334873,"perigee_km":538.91488343431,"apogee_km":540.60008253036,"semimajor_km":6917.8944829823,"source":"CELESTRAK","updated_at":"2026-05-25T13:38:17.691263Z"}}